Time,TemperatureF,DewpointF,PressureIn,WindDirection,WindDirectionDegrees,WindSpeedMPH,WindSpeedGustMPH,Humidity,HourlyPrecipIn,Conditions,Clouds,dailyrainin,SoftwareType,DateUTC
2013-02-24 00:00:00,43.6,44.0,29.81,NE,53,1.0,-999.0,100,-99.99,,,0.12,weatherlink.com 1.10,2013-02-24 05:00:00,
2013-02-24 00:15:00,43.5,44.0,29.81,NW,321,0.0,-999.0,100,-99.99,,,0.00,weatherlink.com 1.10,2013-02-24 05:15:00,
2013-02-24 00:30:00,43.5,44.0,29.81,NW,319,0.0,-999.0,100,-99.99,,,0.00,weatherlink.com 1.10,2013-02-24 05:30:00,
2013-02-24 00:45:00,43.3,43.0,29.82,NW,321,0.0,-999.0,100,-99.99,,,0.00,weatherlink.com 1.10,2013-02-24 05:45:00,
2013-02-24 01:00:00,43.3,43.0,29.82,NW,321,0.0,-999.0,100,-99.99,,,0.00,weatherlink.com 1.10,2013-02-24 06:00:00,
2013-02-24 01:15:00,43.2,43.0,29.82,NW,309,0.0,-999.0,100,-99.99,,,0.00,weatherlink.com 1.10,2013-02-24 06:15:00,
2013-02-24 01:30:00,43.1,43.0,29.82,NW,309,0.0,-999.0,100,-99.99,,,0.00,weatherlink.com 1.10,2013-02-24 06:30:00,
2013-02-24 01:45:00,42.8,43.0,29.82,NW,319,0.0,-999.0,100,-99.99,,,0.00,weatherlink.com 1.10,2013-02-24 06:45:00,
2013-02-24 02:00:00,42.6,43.0,29.82,North,349,0.0,-999.0,100,-99.99,,,0.00,weatherlink.com 1.10,2013-02-24 07:00:00,
2013-02-24 02:15:00,42.3,42.0,29.82,North,356,2.0,-999.0,100,-99.99,,,0.00,weatherlink.com 1.10,2013-02-24 07:15:00,
2013-02-24 02:30:00,41.9,42.0,29.81,NNW,334,0.0,-999.0,100,-99.99,,,0.00,weatherlink.com 1.10,2013-02-24 07:30:00,
2013-02-24 02:45:00,41.8,42.0,29.80,NNW,347,2.0,-999.0,100,-99.99,,,0.00,weatherlink.com 1.10,2013-02-24 07:45:00,
2013-02-24 03:00:00,41.6,42.0,29.80,North,0,1.0,-999.0,100,-99.99,,,0.00,weatherlink.com 1.10,2013-02-24 08:00:00,
2013-02-24 03:15:00,41.5,42.0,29.80,NNW,345,3.0,-999.0,100,-99.99,,,0.00,weatherlink.com 1.10,2013-02-24 08:15:00,
2013-02-24 03:30:00,41.2,41.0,29.80,NNW,346,3.0,-999.0,100,-99.99,,,0.00,weatherlink.com 1.10,2013-02-24 08:30:00,
2013-02-24 04:00:00,40.9,41.0,29.79,North,1,1.0,-999.0,100,-99.99,,,0.00,weatherlink.com 1.10,2013-02-24 09:00:00,
2013-02-24 04:15:00,40.9,41.0,29.79,North,359,4.0,-999.0,100,-99.99,,,0.00,weatherlink.com 1.10,2013-02-24 09:15:00,
2013-02-24 04:30:00,40.8,41.0,29.80,NNW,340,0.0,-999.0,100,-99.99,,,0.00,weatherlink.com 1.10,2013-02-24 09:30:00,
2013-02-24 04:45:00,40.6,41.0,29.79,NNW,336,0.0,-999.0,100,-99.99,,,0.00,weatherlink.com 1.10,2013-02-24 09:45:00,
2013-02-24 05:00:00,40.5,41.0,29.80,NNW,336,0.0,-999.0,100,-99.99,,,0.00,weatherlink.com 1.10,2013-02-24 10:00:00,
2013-02-24 05:15:00,40.5,41.0,29.80,NNW,336,0.0,-999.0,100,-99.99,,,0.00,weatherlink.com 1.10,2013-02-24 10:15:00,
2013-02-24 05:30:00,40.3,40.0,29.81,NNW,336,2.0,-999.0,100,-99.99,,,0.00,weatherlink.com 1.10,2013-02-24 10:30:00,
2013-02-24 05:45:00,40.3,40.0,29.81,NW,318,3.0,-999.0,100,-99.99,,,0.00,weatherlink.com 1.10,2013-02-24 10:45:00,
2013-02-24 06:00:00,40.3,40.0,29.82,NNW,338,1.0,-999.0,100,-99.99,,,0.00,weatherlink.com 1.10,2013-02-24 11:00:00,
2013-02-24 06:15:00,40.3,40.0,29.82,WNW,302,0.0,-999.0,100,-99.99,,,0.00,weatherlink.com 1.10,2013-02-24 11:15:00,
2013-02-24 06:30:00,40.3,40.0,29.82,West,272,0.0,-999.0,100,-99.99,,,0.00,weatherlink.com 1.10,2013-02-24 11:30:00,
2013-02-24 06:45:00,40.3,40.0,29.83,WNW,290,0.0,-999.0,100,-99.99,,,0.00,weatherlink.com 1.10,2013-02-24 11:45:00,
2013-02-24 07:00:00,40.3,40.0,29.85,WNW,293,3.0,-999.0,100,-99.99,,,0.00,weatherlink.com 1.10,2013-02-24 12:00:00,
2013-02-24 07:15:00,40.2,40.0,29.85,WNW,300,0.0,-999.0,100,-99.99,,,0.00,weatherlink.com 1.10,2013-02-24 12:15:00,
2013-02-24 07:30:00,40.2,40.0,29.86,WNW,301,1.0,-999.0,100,-99.99,,,0.00,weatherlink.com 1.10,2013-02-24 12:30:00,
2013-02-24 07:45:00,40.3,40.0,29.85,NW,307,0.0,-999.0,100,-99.99,,,0.00,weatherlink.com 1.10,2013-02-24 12:45:00,
2013-02-24 08:00:00,40.6,41.0,29.86,North,356,1.0,-999.0,100,-99.99,,,0.00,weatherlink.com 1.10,2013-02-24 13:00:00,
2013-02-24 08:15:00,40.9,41.0,29.85,NNW,346,0.0,-999.0,100,-99.99,,,0.00,weatherlink.com 1.10,2013-02-24 13:15:00,
2013-02-24 08:30:00,41.3,41.0,29.85,NNW,338,3.0,-999.0,100,-99.99,,,0.00,weatherlink.com 1.10,2013-02-24 13:30:00,
2013-02-24 08:45:00,41.9,42.0,29.85,NNW,339,3.0,-999.0,100,-99.99,,,0.00,weatherlink.com 1.10,2013-02-24 13:45:00,
2013-02-24 09:00:00,42.9,43.0,29.86,NW,306,2.0,-999.0,100,-99.99,,,0.00,weatherlink.com 1.10,2013-02-24 14:00:00,
2013-02-24 09:15:00,43.8,43.0,29.86,NNW,329,4.0,-999.0,96,-99.99,,,0.00,weatherlink.com 1.10,2013-02-24 14:15:00,
2013-02-24 09:30:00,45.2,43.0,29.86,NNW,333,4.0,-999.0,90,-99.99,,,0.00,weatherlink.com 1.10,2013-02-24 14:30:00,
2013-02-24 09:45:00,46.2,40.0,29.87,NNW,342,3.0,-999.0,80,-99.99,,,0.00,weatherlink.com 1.10,2013-02-24 14:45:00,
2013-02-24 10:00:00,46.5,39.0,29.87,NNW,341,4.0,-999.0,75,-99.99,,,0.00,weatherlink.com 1.10,2013-02-24 15:00:00,
2013-02-24 10:07:00,46.7,37.8,29.87,WNW,303,5.0,9.0,71,0.00,,,0.00,Wunderground v.1.15,2013-02-24 15:07:00,
2013-02-24 10:15:00,46.4,37.0,29.87,West,270,9.0,-999.0,71,-99.99,,,0.00,weatherlink.com 1.10,2013-02-24 15:15:00,
2013-02-24 10:30:00,47.7,35.0,29.87,NW,305,9.0,-999.0,61,-99.99,,,0.00,weatherlink.com 1.10,2013-02-24 15:30:00,
2013-02-24 10:45:00,47.9,34.0,29.87,West,273,7.0,-999.0,59,-99.99,,,0.00,weatherlink.com 1.10,2013-02-24 15:45:00,
2013-02-24 11:00:00,48.3,33.0,29.88,NW,309,16.0,-999.0,56,-99.99,,,0.00,weatherlink.com 1.10,2013-02-24 16:00:00,
2013-02-24 11:15:00,48.5,33.0,29.87,NNW,330,5.0,-999.0,56,-99.99,,,0.00,weatherlink.com 1.10,2013-02-24 16:15:00,
2013-02-24 11:30:00,48.2,32.0,29.88,WNW,293,0.0,-999.0,53,-99.99,,,0.00,weatherlink.com 1.10,2013-02-24 16:30:00,
2013-02-24 11:45:00,48.0,32.0,29.88,North,6,4.0,-999.0,54,-99.99,,,0.00,weatherlink.com 1.10,2013-02-24 16:45:00,
2013-02-24 12:00:00,49.1,33.0,29.87,NNW,327,8.0,-999.0,54,-99.99,,,0.00,weatherlink.com 1.10,2013-02-24 17:00:00,
2013-02-24 12:15:00,48.5,31.0,29.87,NNW,333,11.0,-999.0,52,-99.99,,,0.00,weatherlink.com 1.10,2013-02-24 17:15:00,
2013-02-24 12:30:00,48.2,30.0,29.87,NW,314,11.0,-999.0,50,-99.99,,,0.00,weatherlink.com 1.10,2013-02-24 17:30:00,
2013-02-24 12:45:00,48.8,30.0,29.86,NW,326,8.0,-999.0,49,-99.99,,,0.00,weatherlink.com 1.10,2013-02-24 17:45:00,
2013-02-24 13:00:00,49.1,30.0,29.86,WNW,300,5.0,-999.0,48,-99.99,,,0.00,weatherlink.com 1.10,2013-02-24 18:00:00,
2013-02-24 13:15:00,48.6,30.0,29.85,SW,223,8.0,-999.0,48,-99.99,,,0.00,weatherlink.com 1.10,2013-02-24 18:15:00,
2013-02-24 13:30:00,49.5,30.0,29.85,NW,314,7.0,-999.0,47,-99.99,,,0.00,weatherlink.com 1.10,2013-02-24 18:30:00,
2013-02-24 13:45:00,49.5,28.0,29.85,NW,318,5.0,-999.0,44,-99.99,,,0.00,weatherlink.com 1.10,2013-02-24 18:45:00,
2013-02-24 14:00:00,49.5,28.0,29.85,NW,309,5.0,-999.0,44,-99.99,,,0.00,weatherlink.com 1.10,2013-02-24 19:00:00,
2013-02-24 14:15:00,50.7,28.0,29.85,NW,312,7.0,-999.0,42,-99.99,,,0.00,weatherlink.com 1.10,2013-02-24 19:15:00,
2013-02-24 14:30:00,51.0,28.0,29.85,WNW,284,7.0,-999.0,41,-99.99,,,0.00,weatherlink.com 1.10,2013-02-24 19:30:00,
2013-02-24 14:45:00,51.1,26.0,29.85,North,359,12.0,-999.0,38,-99.99,,,0.00,weatherlink.com 1.10,2013-02-24 19:45:00,
2013-02-24 15:00:00,51.1,25.0,29.85,NNW,333,6.0,-999.0,37,-99.99,,,0.00,weatherlink.com 1.10,2013-02-24 20:00:00,
2013-02-24 15:15:00,50.5,27.0,29.85,NW,325,12.0,-999.0,40,-99.99,,,0.00,weatherlink.com 1.10,2013-02-24 20:15:00,
2013-02-24 15:30:00,50.8,26.0,29.86,WNW,289,14.0,-999.0,38,-99.99,,,0.00,weatherlink.com 1.10,2013-02-24 20:30:00,
2013-02-24 15:45:00,50.1,26.0,29.87,NNW,328,3.0,-999.0,39,-99.99,,,0.00,weatherlink.com 1.10,2013-02-24 20:45:00,
2013-02-24 16:00:00,50.1,26.0,29.87,NNW,347,9.0,-999.0,40,-99.99,,,0.00,weatherlink.com 1.10,2013-02-24 21:00:00,
2013-02-24 16:15:00,49.5,27.0,29.87,WNW,300,7.0,-999.0,42,-99.99,,,0.00,weatherlink.com 1.10,2013-02-24 21:15:00,
2013-02-24 16:30:00,48.9,25.0,29.88,North,359,4.0,-999.0,40,-99.99,,,0.00,weatherlink.com 1.10,2013-02-24 21:30:00,
2013-02-24 16:45:00,48.0,26.0,29.89,NNW,345,10.0,-999.0,43,-99.99,,,0.00,weatherlink.com 1.10,2013-02-24 21:45:00,
2013-02-24 17:00:00,46.4,26.0,29.90,NE,34,20.0,-999.0,45,-99.99,,,0.00,weatherlink.com 1.10,2013-02-24 22:00:00,
2013-02-24 17:15:00,44.5,26.0,29.92,North,1,4.0,-999.0,48,-99.99,,,0.00,weatherlink.com 1.10,2013-02-24 22:15:00,
2013-02-24 17:30:00,43.3,26.0,29.93,NNW,345,12.0,-999.0,51,-99.99,,,0.00,weatherlink.com 1.10,2013-02-24 22:30:00,
2013-02-24 17:45:00,42.8,26.0,29.95,NNW,329,6.0,-999.0,51,-99.99,,,0.00,weatherlink.com 1.10,2013-02-24 22:45:00,
2013-02-24 18:00:00,41.8,25.0,29.96,NNW,341,0.0,-999.0,52,-99.99,,,0.00,weatherlink.com 1.10,2013-02-24 23:00:00,
2013-02-24 18:15:00,40.8,24.0,29.97,North,354,12.0,-999.0,52,-99.99,,,0.00,weatherlink.com 1.10,2013-02-24 23:15:00,
2013-02-24 18:30:00,39.9,24.0,29.98,NW,305,6.0,-999.0,53,-99.99,,,0.00,weatherlink.com 1.10,2013-02-24 23:30:00,
2013-02-24 18:45:00,39.2,24.0,29.99,WNW,292,3.0,-999.0,55,-99.99,,,0.00,weatherlink.com 1.10,2013-02-24 23:45:00,
2013-02-24 19:00:00,38.3,24.0,30.01,North,359,5.0,-999.0,56,-99.99,,,0.00,weatherlink.com 1.10,2013-02-25 00:00:00,
2013-02-24 19:15:00,38.0,23.0,30.01,NNW,328,6.0,-999.0,56,-99.99,,,0.00,weatherlink.com 1.10,2013-02-25 00:15:00,
2013-02-24 19:30:00,37.6,23.0,30.02,NNW,347,13.0,-999.0,56,-99.99,,,0.00,weatherlink.com 1.10,2013-02-25 00:30:00,
2013-02-24 19:45:00,37.3,21.0,30.02,NNW,327,12.0,-999.0,52,-99.99,,,0.00,weatherlink.com 1.10,2013-02-25 00:45:00,
2013-02-24 20:00:00,37.0,21.0,30.02,North,11,7.0,-999.0,53,-99.99,,,0.00,weatherlink.com 1.10,2013-02-25 01:00:00,
2013-02-24 20:15:00,36.8,21.0,30.04,NW,305,2.0,-999.0,53,-99.99,,,0.00,weatherlink.com 1.10,2013-02-25 01:15:00,
2013-02-24 20:30:00,36.5,21.0,30.05,NW,320,6.0,-999.0,54,-99.99,,,0.00,weatherlink.com 1.10,2013-02-25 01:30:00,
2013-02-24 20:45:00,36.0,21.0,30.06,NNE,17,4.0,-999.0,55,-99.99,,,0.00,weatherlink.com 1.10,2013-02-25 01:45:00,
2013-02-24 21:00:00,35.6,21.0,30.07,NNW,337,6.0,-999.0,55,-99.99,,,0.00,weatherlink.com 1.10,2013-02-25 02:00:00,
2013-02-24 21:15:00,35.3,20.0,30.07,North,351,5.0,-999.0,55,-99.99,,,0.00,weatherlink.com 1.10,2013-02-25 02:15:00,
2013-02-24 21:30:00,35.0,21.0,30.08,WNW,295,1.0,-999.0,56,-99.99,,,0.00,weatherlink.com 1.10,2013-02-25 02:30:00,
2013-02-24 21:45:00,34.6,20.0,30.09,NNW,341,10.0,-999.0,56,-99.99,,,0.00,weatherlink.com 1.10,2013-02-25 02:45:00,
2013-02-24 22:00:00,34.6,20.0,30.09,WNW,295,10.0,-999.0,56,-99.99,,,0.00,weatherlink.com 1.10,2013-02-25 03:00:00,
2013-02-24 22:15:00,34.3,20.0,30.09,North,349,5.0,-999.0,56,-99.99,,,0.00,weatherlink.com 1.10,2013-02-25 03:15:00,
2013-02-24 22:30:00,34.0,20.0,30.09,WNW,301,5.0,-999.0,57,-99.99,,,0.00,weatherlink.com 1.10,2013-02-25 03:30:00,
2013-02-24 22:46:00,33.7,20.0,30.09,North,349,3.0,-999.0,57,-99.99,,,0.00,weatherlink.com 1.10,2013-02-25 03:46:00,
2013-02-24 23:00:00,33.5,20.0,30.10,WNW,300,3.0,-999.0,57,-99.99,,,0.00,weatherlink.com 1.10,2013-02-25 04:00:00,
2013-02-24 23:15:00,33.2,20.0,30.10,NNW,338,3.0,-999.0,58,-99.99,,,0.00,weatherlink.com 1.10,2013-02-25 04:15:00,
2013-02-24 23:30:00,33.1,20.0,30.10,NW,311,3.0,-999.0,58,-99.99,,,0.00,weatherlink.com 1.10,2013-02-25 04:30:00,
2013-02-24 23:45:00,32.8,20.0,30.10,NW,307,4.0,-999.0,59,-99.99,,,0.00,weatherlink.com 1.10,2013-02-25 04:45:00,